• en France
  • Liste des pays
  • À 7 jours
  • Température de l'eau
  • Carte satellitaire
  • Carte météo
  • Widgets météo
  • user-avatar
    Se connecter

    Météo par heure à Arakani

    Ce jour, 22 Octobre, Lundi

    Heure Température Précipitation Vent Pression Humidité
    00:00 +14°C° 0 mm 1 m/s 688 mmHg 75%
    01:00 +14°C° 0 mm 1 m/s 688 mmHg 74%
    02:00 +14°C° 0 mm 1 m/s 688 mmHg 72%
    03:00 +14°C° 0 mm 1 m/s 688 mmHg 74%
    04:00 +14°C° 0.1 mm 1 m/s 688 mmHg 72%
    05:00 +14°C° 0.1 mm 1 m/s 688 mmHg 71%
    06:00 +14°C° 0.1 mm 1 m/s 688 mmHg 69%
    07:00 +15°C° 0.2 mm 1 m/s 688 mmHg 67%
    08:00 +16°C° 0.2 mm 1 m/s 688 mmHg 65%
    09:00 +16°C° 0.2 mm 1 m/s 689 mmHg 63%
    10:00 +18°C° 0.3 mm 1 m/s 689 mmHg 63%
    11:00 +18°C° 0.3 mm 1 m/s 689 mmHg 64%
    12:00 +18°C° 0.3 mm 1 m/s 689 mmHg 65%
    13:00 +18°C° 0.1 mm 1 m/s 689 mmHg 67%
    14:00 +18°C° 0.1 mm 1 m/s 689 mmHg 69%
    15:00 +18°C° 0.1 mm 1 m/s 688 mmHg 71%
    16:00 +16°C° 0 mm 1 m/s 689 mmHg 78%
    17:00 +15°C° 0 mm 1 m/s 689 mmHg 84%
    18:00 +14°C° 0 mm 1 m/s 689 mmHg 91%
    19:00 +14°C° 0.1 mm 1 m/s 689 mmHg 91%
    20:00 +14°C° 0.1 mm 1 m/s 689 mmHg 91%
    21:00 +12°C° 0.1 mm 0 m/s 689 mmHg 92%
    22:00 +13°C° 0.1 mm 1 m/s 689 mmHg 91%
    23:00 +13°C° 0.1 mm 1 m/s 689 mmHg 90%

    Demain, 23 Octobre, Mardi

    Heure Température Précipitation Vent Pression Humidité
    00:00 +13°C° 0.1 mm 1 m/s 689 mmHg 89%
    01:00 +13°C° 0.1 mm 1 m/s 689 mmHg 88%
    02:00 +13°C° 0.1 mm 1 m/s 689 mmHg 87%
    03:00 +12°C° 0.1 mm 1 m/s 689 mmHg 85%
    04:00 +12°C° 0 mm 1 m/s 688 mmHg 83%
    05:00 +12°C° 0 mm 1 m/s 688 mmHg 81%
    06:00 +12°C° 0 mm 1 m/s 688 mmHg 78%
    07:00 +13°C° 0 mm 1 m/s 688 mmHg 73%
    08:00 +15°C° 0 mm 1 m/s 689 mmHg 67%
    09:00 +18°C° 0 mm 1 m/s 689 mmHg 61%
    10:00 +18°C° 0 mm 1 m/s 689 mmHg 59%
    11:00 +18°C° 0 mm 2 m/s 689 mmHg 57%
    12:00 +19°C° 0 mm 2 m/s 689 mmHg 55%
    13:00 +18°C° 0 mm 2 m/s 689 mmHg 58%
    14:00 +18°C° 0 mm 2 m/s 688 mmHg 61%
    15:00 +18°C° 0 mm 2 m/s 688 mmHg 64%
    16:00 +18°C° 0 mm 1 m/s 688 mmHg 70%
    17:00 +15°C° 0 mm 1 m/s 688 mmHg 77%
    18:00 +14°C° 0 mm 1 m/s 687 mmHg 83%
    19:00 +14°C° 0 mm 1 m/s 687 mmHg 82%
    20:00 +14°C° 0 mm 1 m/s 687 mmHg 81%
    21:00 +13°C° 0 mm 1 m/s 687 mmHg 80%
    22:00 +13°C° 0 mm 1 m/s 687 mmHg 78%
    23:00 +13°C° 0 mm 1 m/s 687 mmHg 77%

    Après-demain, 24 Octobre, Mercredi

    Heure Température Précipitation Vent Pression Humidité
    00:00 +13°C° 0 mm 1 m/s 686 mmHg 76%
    01:00 +12°C° 0 mm 1 m/s 686 mmHg 75%
    02:00 +12°C° 0 mm 1 m/s 686 mmHg 75%
    03:00 +12°C° 0 mm 1 m/s 686 mmHg 75%
    04:00 +12°C° 0 mm 2 m/s 685 mmHg 75%
    05:00 +12°C° 0 mm 2 m/s 685 mmHg 75%
    06:00 +12°C° 0 mm 2 m/s 685 mmHg 75%
    07:00 +14°C° 0 mm 2 m/s 685 mmHg 69%
    08:00 +15°C° 0 mm 2 m/s 685 mmHg 63%
    09:00 +17°C° 0 mm 3 m/s 685 mmHg 57%
    10:00 +18°C° 0 mm 3 m/s 685 mmHg 53%
    11:00 +19°C° 0 mm 3 m/s 684 mmHg 49%
    12:00 +20°C° 0 mm 3 m/s 684 mmHg 46%
    13:00 +20°C° 0 mm 3 m/s 683 mmHg 47%
    14:00 +20°C° 0 mm 3 m/s 682 mmHg 48%
    15:00 +20°C° 0 mm 3 m/s 682 mmHg 49%
    16:00 +18°C° 0 mm 3 m/s 681 mmHg 54%
    17:00 +17°C° 0 mm 3 m/s 681 mmHg 60%
    18:00 +14°C° 0 mm 3 m/s 680 mmHg 65%
    19:00 +14°C° 0 mm 3 m/s 680 mmHg 63%
    20:00 +14°C° 0 mm 3 m/s 680 mmHg 62%
    21:00 +14°C° 0 mm 3 m/s 680 mmHg 61%
    22:00 +14°C° 0 mm 3 m/s 679 mmHg 60%
    23:00 +14°C° 0 mm 3 m/s 678 mmHg 59%

    25 Octobre, Jeudi

    Heure Température Précipitation Vent Pression Humidité
    00:00 +14°C° 0 mm 3 m/s 678 mmHg 59%
    01:00 +14°C° 0 mm 3 m/s 677 mmHg 59%
    02:00 +14°C° 0 mm 3 m/s 677 mmHg 60%
    03:00 +13°C° 0 mm 4 m/s 676 mmHg 61%
    04:00 +13°C° 0 mm 4 m/s 676 mmHg 61%
    05:00 +13°C° 0 mm 3 m/s 676 mmHg 62%
    06:00 +13°C° 0 mm 3 m/s 676 mmHg 63%
    07:00 +16°C° 0 mm 3 m/s 676 mmHg 57%
    08:00 +18°C° 0 mm 3 m/s 676 mmHg 52%
    09:00 +20°C° 0 mm 3 m/s 676 mmHg 46%
    10:00 +21°C° 0 mm 4 m/s 676 mmHg 43%
    11:00 +22°C° 0 mm 4 m/s 676 mmHg 39%
    12:00 +25°C° 0 mm 5 m/s 676 mmHg 35%
    13:00 +23°C° 0 mm 5 m/s 676 mmHg 36%
    14:00 +23°C° 0 mm 4 m/s 675 mmHg 38%
    15:00 +22°C° 0 mm 4 m/s 675 mmHg 40%
    16:00 +20°C° 0 mm 4 m/s 675 mmHg 50%
    17:00 +18°C° 0 mm 3 m/s 675 mmHg 59%
    18:00 +16°C° 0 mm 3 m/s 675 mmHg 69%
    19:00 +14°C° 0 mm 4 m/s 676 mmHg 73%
    20:00 +13°C° 0 mm 4 m/s 676 mmHg 77%
    21:00 +12°C° 0 mm 5 m/s 677 mmHg 82%
    22:00 +12°C° 0.1 mm 5 m/s 678 mmHg 82%
    23:00 +10°C° 0.1 mm 5 m/s 678 mmHg 83%

    26 Octobre, Vendredi

    Heure Température Précipitation Vent Pression Humidité
    00:00 +9°C° 0.1 mm 5 m/s 679 mmHg 84%
    01:00 +8°C° 0.1 mm 4 m/s 679 mmHg 83%
    02:00 +8°C° 0.1 mm 4 m/s 679 mmHg 83%
    03:00 +9°C° 0.1 mm 3 m/s 679 mmHg 82%
    04:00 +8°C° 0.4 mm 3 m/s 680 mmHg 82%
    05:00 +8°C° 0.4 mm 3 m/s 680 mmHg 82%
    06:00 +7°C° 0.4 mm 3 m/s 681 mmHg 82%
    07:00 +7°C° 1.9 mm 3 m/s 681 mmHg 84%
    08:00 +6°C° 1.9 mm 2 m/s 681 mmHg 85%
    09:00 +6°C° 1.9 mm 2 m/s 682 mmHg 87%
    10:00 +6°C° 1 mm 2 m/s 682 mmHg 86%
    11:00 +6°C° 1 mm 2 m/s 682 mmHg 86%
    12:00 +5°C° 1 mm 2 m/s 682 mmHg 85%
    13:00 +6°C° 0.3 mm 2 m/s 682 mmHg 85%
    14:00 +6°C° 0.3 mm 2 m/s 682 mmHg 84%
    15:00 +6°C° 0.3 mm 2 m/s 682 mmHg 83%
    16:00 +6°C° 0.1 mm 2 m/s 683 mmHg 83%
    17:00 +6°C° 0.1 mm 2 m/s 683 mmHg 84%
    18:00 +5°C° 0.1 mm 2 m/s 683 mmHg 84%
    19:00 +5°C° 0 mm 2 m/s 684 mmHg 81%
    20:00 +3°C° 0 mm 3 m/s 684 mmHg 78%
    21:00 +3°C° 0 mm 3 m/s 684 mmHg 75%
    22:00 +2°C° 0 mm 3 m/s 685 mmHg 71%
    23:00 +2°C° 0 mm 3 m/s 685 mmHg 67%

    27 Octobre, Samedi

    Heure Température Précipitation Vent Pression Humidité
    00:00 +2°C° 0 mm 3 m/s 686 mmHg 64%
    01:00 +2°C° 0 mm 3 m/s 686 mmHg 66%
    02:00 +3°C° 0 mm 4 m/s 687 mmHg 68%
    03:00 +3°C° 0 mm 4 m/s 688 mmHg 71%
    04:00 +3°C° 0 mm 4 m/s 689 mmHg 73%
    05:00 +3°C° 0 mm 4 m/s 690 mmHg 75%
    06:00 +1°C° 0 mm 4 m/s 691 mmHg 78%
    07:00 +3°C° 0 mm 4 m/s 691 mmHg 76%
    08:00 +5°C° 0 mm 4 m/s 692 mmHg 75%
    09:00 +7°C° 0 mm 3 m/s 693 mmHg 74%
    10:00 +7°C° 0 mm 3 m/s 693 mmHg 71%
    11:00 +8°C° 0 mm 3 m/s 693 mmHg 68%
    12:00 +9°C° 0 mm 3 m/s 694 mmHg 65%
    13:00 +9°C° 0 mm 3 m/s 694 mmHg 65%
    14:00 +10°C° 0 mm 3 m/s 694 mmHg 65%
    15:00 +10°C° 0 mm 2 m/s 694 mmHg 65%
    16:00 +8°C° 0 mm 2 m/s 695 mmHg 67%
    17:00 +7°C° 0 mm 2 m/s 695 mmHg 70%
    18:00 +6°C° 0 mm 1 m/s 695 mmHg 72%
    19:00 +6°C° 0 mm 1 m/s 696 mmHg 71%
    20:00 +5°C° 0 mm 2 m/s 696 mmHg 69%
    21:00 +5°C° 0 mm 2 m/s 696 mmHg 68%
    22:00 +5°C° 0 mm 2 m/s 696 mmHg 66%
    23:00 +5°C° 0 mm 2 m/s 696 mmHg 65%

    28 Octobre, Dimanche

    Heure Température Précipitation Vent Pression Humidité
    00:00 +5°C° 0 mm 2 m/s 696 mmHg 64%
    01:00 +4°C° 0 mm 3 m/s 696 mmHg 63%
    02:00 +4°C° 0 mm 3 m/s 696 mmHg 62%
    03:00 +4°C° 0 mm 3 m/s 696 mmHg 62%
    04:00 +4°C° 0 mm 3 m/s 696 mmHg 61%
    05:00 +4°C° 0 mm 3 m/s 696 mmHg 60%
    06:00 +4°C° 0 mm 3 m/s 696 mmHg 59%
    07:00 +7°C° 0 mm 3 m/s 697 mmHg 57%
    08:00 +9°C° 0 mm 2 m/s 697 mmHg 56%
    09:00 +12°C° 0 mm 2 m/s 697 mmHg 54%
    10:00 +13°C° 0 mm 2 m/s 697 mmHg 53%
    11:00 +15°C° 0 mm 2 m/s 697 mmHg 52%
    12:00 +16°C° 0 mm 2 m/s 697 mmHg 51%
    13:00 +16°C° 0 mm 2 m/s 697 mmHg 52%
    14:00 +16°C° 0 mm 2 m/s 697 mmHg 53%
    15:00 +16°C° 0 mm 2 m/s 696 mmHg 55%
    16:00 +14°C° 0 mm 2 m/s 696 mmHg 57%
    17:00 +13°C° 0 mm 2 m/s 696 mmHg 60%
    18:00 +10°C° 0 mm 2 m/s 696 mmHg 63%
    19:00 +10°C° 0 mm 2 m/s 696 mmHg 59%
    20:00 +10°C° 0 mm 2 m/s 696 mmHg 56%
    21:00 +9°C° 0 mm 2 m/s 696 mmHg 52%
    22:00 +9°C° 0 mm 2 m/s 696 mmHg 50%
    23:00 +9°C° 0 mm 2 m/s 696 mmHg 47%
    Voir plus